| time (UTC) | temp F | wind direction | speed MPH | gust MPH | rain 1hr in | rain 24hr in | rain mn in | humidity % | barometer mb |
| 20260504213322 | 47 | 325 | 9.0 | 15.0 | 0.00 | 1.10 | 0.00 | 76 | 1026.9 |
| 20260504210319 | 46 | 306 | 4.0 | 7.0 | 0.00 | 1.22 | 0.00 | 80 | 1026.8 |
| 20260504203320 | 45 | 283 | 3.0 | 5.0 | 0.00 | 1.22 | 0.00 | 81 | 1026.4 |
| 20260504200318 | 44 | 86 | 2.0 | 14.0 | 0.00 | 1.26 | 0.00 | 82 | 1025.6 |
| 20260504193317 | 44 | 1 | 5.0 | 14.0 | 0.00 | 1.26 | 0.00 | 83 | 1024.9 |
| 20260504190316 | 44 | 302 | 3.0 | 16.0 | 0.00 | 1.54 | 0.00 | 82 | 1024.5 |
| 20260504183316 | 44 | 307 | 5.0 | 12.0 | 0.00 | 1.54 | 0.00 | 81 | 1023.9 |
| 20260504180334 | 44 | 323 | 4.0 | 14.0 | 0.00 | 2.09 | 0.00 | 82 | 1023.3 |
| 20260504173334 | 44 | 298 | 4.0 | 11.0 | 0.00 | 2.09 | 0.00 | 81 | 1022.7 |
| 20260504170332 | 44 | 300 | 8.0 | 17.0 | 0.00 | 2.40 | 0.00 | 81 | 1022.3 |
| 20260504160330 | 45 | 291 | 10.0 | 22.0 | 0.00 | 2.44 | 0.00 | 78 | 1020.8 |
| 20260504150326 | 46 | 301 | 5.0 | 20.0 | 0.00 | 2.44 | 0.49 | 77 | 1019.2 |
| 20260504140346 | 47 | 324 | 9.0 | 20.0 | 0.00 | 2.44 | 0.49 | 80 | 1018.5 |
| 20260504130323 | 48 | 312 | 10.0 | 26.0 | 0.00 | 2.56 | 0.49 | 83 | 1017.8 |
| 20260504120316 | 49 | 330 | 14.0 | 27.0 | 0.00 | 2.68 | 0.49 | 82 | 1015.6 |
| 20260504110334 | 54 | 307 | 9.0 | 20.0 | 0.00 | 2.68 | 0.49 | 72 | 1014.1 |
| 20260504100332 | 55 | 228 | 8.0 | 25.0 | 0.00 | 2.68 | 0.49 | 73 | 1012.3 |
| 20260504080326 | 57 | 307 | 9.0 | 28.0 | 0.04 | 2.68 | 0.49 | 73 | 1010.4 |
| 20260504070325 | 57 | 312 | 4.0 | 10.0 | 0.00 | 2.64 | 0.48 | 78 | 1010.1 |
| 20260504050321 | 61 | 293 | 6.0 | 18.0 | 0.00 | 2.64 | 0.48 | 76 | 1009.0 |
| 20260504043340 | 61 | 274 | 7.0 | 19.0 | 0.00 | 2.64 | 0.48 | 78 | 1009.4 |
| 20260504040318 | 62 | 288 | 4.0 | 13.0 | 0.00 | 2.64 | 0.48 | 77 | 1009.3 |
| 20260504033317 | 63 | 299 | 3.0 | 11.0 | 0.00 | 2.64 | 0.48 | 76 | 1009.2 |
| 20260504030354 | 64 | 316 | 5.0 | 15.0 | 0.00 | 2.64 | 0.48 | 75 | 1009.1 |
| 20260504023333 | 65 | 347 | 7.0 | 15.0 | 0.00 | 2.64 | 0.48 | 75 | 1008.9 |
| 20260504020332 | 63 | 339 | 6.0 | 21.0 | 0.00 | 2.64 | 0.48 | 77 | 1009.3 |
| 20260504013331 | 62 | 303 | 5.0 | 16.0 | 0.00 | 2.64 | 0.48 | 78 | 1009.2 |
| 20260504010329 | 61 | 260 | 2.0 | 10.0 | 0.00 | 2.64 | 0.48 | 82 | 1009.5 |
| 20260504003330 | 61 | 319 | 5.0 | 17.0 | 0.00 | 2.64 | 0.48 | 86 | 1009.4 |
| 20260504000327 | 60 | 297 | 4.0 | 7.0 | 0.04 | 2.64 | 0.48 | 90 | 1009.8 |
| 20260503233327 | 59 | 252 | 2.0 | 9.0 | 0.04 | 2.64 | 0.48 | 94 | 1009.1 |
| 20260503230325 | 60 | 218 | 0.0 | 3.0 | 0.00 | 2.60 | 0.47 | 96 | 1008.6 |
| 20260503223325 | 59 | 293 | 2.0 | 9.0 | 0.59 | 2.60 | 0.47 | 96 | 1008.2 |
| 20260503220323 | 59 | 304 | 4.0 | 11.0 | 1.10 | 2.60 | 0.47 | 98 | 1008.5 |